FW6045 Weather Reports


Display with metric or nautical units.
time (UTC)temp
F
wind
direction
speed
MPH
gust
MPH
rain 1hr
in
rain 24hr
in
rain mn
in
humidity
%
barometer
mb
20260510233100 68 319 4.0 11.0 0.00 0.00 0.00 44 1016.3
20260510231556 68 360 5.0 13.0 0.00 0.00 0.00 43 1016.3
20260510230100 69 11 6.0 13.0 0.00 0.00 0.00 42 1016.3
20260510224559 69 331 10.0 16.0 0.00 0.00 0.00 42 1016.2
20260510223101 69 355 8.0 16.0 0.00 0.00 0.00 42 1016.2
20260510221557 70 292 6.0 17.0 0.00 0.00 0.00 43 1016.1
20260510220104 70 336 10.0 15.0 0.00 0.00 0.00 42 1016.1
20260510214603 70 260 7.0 14.0 0.00 0.00 0.00 44 1015.8
20260510213109 70 335 4.0 13.0 0.00 0.00 0.00 44 1015.7
20260510211603 71 333 5.0 11.0 0.00 0.00 0.00 43 1015.5
20260510210111 71 336 4.0 10.0 0.00 0.00 0.00 44 1015.4
20260510204605 71 296 6.0 14.0 0.00 0.00 0.00 43 1015.4
20260510203059 71 340 10.0 15.0 0.00 0.00 0.00 44 1015.2
20260510201601 71 355 7.0 14.0 0.00 0.00 0.00 44 1015.2
20260510200058 71 351 4.0 16.0 0.00 0.00 0.00 46 1015.4
20260510194559 71 23 7.0 13.0 0.00 0.00 0.00 46 1015.3
20260510193108 70 296 4.0 10.0 0.00 0.00 0.00 47 1015.5
20260510191601 71 304 7.0 14.0 0.00 0.00 0.00 47 1015.7
20260510190059 70 260 7.0 14.0 0.00 0.00 0.00 48 1015.7
20260510184558 70 343 2.0 9.0 0.00 0.00 0.00 49 1015.6
20260510183058 69 46 8.0 13.0 0.00 0.00 0.00 49 1015.6
20260510181619 68 308 7.0 14.0 0.00 0.00 0.00 51 1015.6
20260510180115 69 5 5.0 12.0 0.00 0.00 0.00 52 1015.7
20260510174557 68 139 3.0 10.0 0.00 0.00 0.00 52 1015.9
20260510173058 67 34 7.0 12.0 0.00 0.00 0.00 51 1016.1
20260510171604 67 91 3.0 14.0 0.00 0.00 0.00 50 1015.8
20260510170111 66 342 5.0 11.0 0.00 0.00 0.00 51 1016.0
20260510164607 66 71 4.0 11.0 0.00 0.00 0.00 53 1015.8
20260510163058 66 340 5.0 15.0 0.00 0.00 0.00 54 1015.6
20260510161556 65 51 8.0 15.0 0.00 0.00 0.00 55 1015.4
20260510160107 65 48 7.0 13.0 0.00 0.00 0.00 58 1015.3
20260510154617 65 342 8.0 16.0 0.00 0.00 0.00 62 1015.2
20260510153058 65 22 6.0 12.0 0.00 0.00 0.00 63 1015.0
20260510151558 64 32 6.0 11.0 0.00 0.00 0.00 64 1015.0
20260510150105 64 329 6.0 10.0 0.00 0.00 0.00 66 1015.0
20260510144557 63 360 3.0 9.0 0.00 0.00 0.00 69 1014.8
20260510143058 63 360 4.0 10.0 0.00 0.00 0.00 71 1014.5
20260510141557 63 36 2.0 9.0 0.00 0.00 0.00 73 1014.5
20260510140057 62 42 2.0 9.0 0.00 0.00 0.00 74 1014.4
20260510134601 61 24 4.0 10.0 0.00 0.00 0.00 74 1014.1
20260510133107 60 352 3.0 12.0 0.00 0.00 0.00 76 1014.0
20260510131604 60 22 5.0 12.0 0.00 0.00 0.00 76 1013.9
20260510130105 60 349 4.0 9.0 0.00 0.00 0.00 77 1013.8
20260510124612 59 27 5.0 8.0 0.00 0.00 0.00 78 1013.4
20260510123118 59 31 3.0 8.0 0.00 0.00 0.00 80 1013.3
20260510121600 59 42 3.0 6.0 0.00 0.00 0.00 81 1012.8
20260510120103 59 32 2.0 5.0 0.00 0.00 0.00 80 1012.7
20260510114604 59 152 1.0 3.0 0.00 0.00 0.00 80 1012.5
20260510113102 58 240 0.0 4.0 0.00 0.00 0.00 80 1012.4
20260510111626 58 242 4.0 5.0 0.00 0.00 0.00 81 1012.2
20260510110057 57 263 2.0 4.0 0.00 0.00 0.00 81 1012.1
20260510104608 58 288 1.0 7.0 0.00 0.01 0.00 80 1011.7
20260510103101 59 94 4.0 6.0 0.00 0.01 0.00 77 1011.0
20260510101559 59 317 3.0 8.0 0.00 0.01 0.00 78 1011.4
20260510100100 58 323 6.0 10.0 0.00 0.01 0.00 80 1011.5
20260510094600 57 319 8.0 10.0 0.00 0.02 0.00 79 1011.4
20260510093100 60 248 6.0 8.0 0.00 0.02 0.00 75 1010.9
20260510091604 60 221 6.0 8.0 0.00 0.02 0.00 74 1010.7
20260510090119 60 213 6.0 9.0 0.00 0.02 0.00 75 1010.7
20260510084605 60 201 5.0 9.0 0.00 0.03 0.00 75 1010.6
20260510083106 60 188 5.0 8.0 0.00 0.03 0.00 76 1010.6
20260510081556 60 228 4.0 8.0 0.00 0.03 0.00 76 1010.6
20260510074557 61 234 4.0 7.0 0.00 0.05 0.00 74 1009.8
20260510073056 61 219 5.0 9.0 0.00 0.05 0.00 71 1009.8
20260510071555 62 249 5.0 8.0 0.00 0.05 0.00 71 1009.8
20260510070106 62 227 4.0 7.0 0.00 0.05 0.00 71 1009.8
20260510064611 62 254 4.0 7.0 0.00 0.05 0.00 71 1009.9
20260510063057 62 235 3.0 4.0 0.00 0.05 0.00 71 1010.1
20260510061559 62 235 3.0 6.0 0.00 0.05 0.00 70 1010.1
20260510060058 62 232 5.0 9.0 0.00 0.05 0.00 69 1010.3
20260510054605 63 218 5.0 7.0 0.00 0.05 0.00 67 1010.2
20260510053105 64 217 6.0 9.0 0.00 0.05 0.00 67 1010.3
20260510051608 64 196 6.0 8.0 0.00 0.05 0.00 66 1010.3
20260510050059 63 232 5.0 7.0 0.00 0.05 0.00 66 1010.4
20260510044614 64 218 5.0 9.0 0.00 0.05 0.00 66 1010.4
20260510043102 64 227 3.0 6.0 0.00 0.05 0.00 65 1010.4
20260510041611 64 243 5.0 8.0 0.00 0.05 0.00 65 1010.1
20260510034605 64 244 6.0 10.0 0.00 0.05 0.05 66 1010.3
20260510033057 65 223 7.0 11.0 0.00 0.05 0.05 64 1010.3
20260510031608 66 242 7.0 11.0 0.00 0.05 0.05 63 1010.3
20260510030106 66 254 7.0 10.0 0.00 0.05 0.05 64 1010.1
20260510024557 66 233 7.0 11.0 0.00 0.05 0.05 63 1010.1
20260510023056 67 250 7.0 14.0 0.00 0.05 0.05 61 1009.9
20260510021555 68 240 9.0 13.0 0.00 0.05 0.05 59 1009.7
20260510020101 68 215 7.0 13.0 0.00 0.05 0.05 59 1009.4
20260510014604 69 248 8.0 13.0 0.00 0.05 0.05 57 1009.3
20260510013103 69 229 7.0 11.0 0.00 0.05 0.05 57 1009.2
20260510011606 69 238 6.0 10.0 0.00 0.05 0.05 56 1009.0
20260510010058 70 246 5.0 10.0 0.00 0.05 0.05 55 1008.7
20260510004557 71 242 5.0 10.0 0.00 0.05 0.05 53 1008.4
20260510003103 72 236 6.0 12.0 0.00 0.05 0.05 52 1008.2
20260510001557 73 231 8.0 15.0 0.00 0.05 0.05 50 1007.7
20260510000111 73 227 9.0 15.0 0.00 0.05 0.05 50 1007.5
20260509234621 74 213 8.0 18.0 0.00 0.05 0.05 48 1007.4